Weather History for Rutherfordton, NC

Change the Weather History Date:

Saturday, November 23, 2013

  Actual Average (KAVL) Record (KAVL)
Temperature  
Mean Temperature 48 °F 45 °F  
Max Temperature 58 °F 56 °F 75 °F (1973)
Min Temperature 38 °F 34 °F 13 °F (1937)
Degree Days  
Heating Degree Days 16 20  
Month to date heating degree days 383  
Since 1 July heating degree days 718  
Cooling Degree Days 0 0  
Month to date cooling degree days 0  
Year to date cooling degree days 862  
Moisture  
Dew Point 41 °F    
Average Humidity 70    
Maximum Humidity 100    
Minimum Humidity 35    
Precipitation  
Precipitation 0.00 in 0.14 in 2.63 in (1961)
Month to date precipitation 2.70  
Year to date precipitation 41.03  
Snow  
Snow 0.00 in 0.00 in 5.00 in (1975)
Month to date snowfall 0.1  
Since 1 July snowfall 0.1  
Since 1 September snowfall 0.1  
Snow Depth -    
Sea Level Pressure  
Sea Level Pressure 30.14 in    
Wind  
Wind Speed 2 mph (North)    
Max Wind Speed 7 mph    
Max Gust Speed -    
Visibility 8 miles    
Events Fog    
T = Trace of Precipitation, MM = Missing Value Source: NWS Daily Summary

Daily Weather History Graph

Daily Weather History Graph

Search for Another Location

Airport:

Trip Planner

Search our weather history database for the weather conditions in past years. The results will help you decide how hot, cold, wet, or windy it might be!

Date:

Astronomy

Nov. 23, 2013 Rise Set
Actual Time 7:11 AM EST 5:17 PM EST
Civil Twilight 6:43 AM EST 5:44 PM EST
Nautical Twilight 6:12 AM EST 6:15 PM EST
Astronomical Twilight 5:42 AM EST 6:46 PM EST
Moon 10:39 PM EST (11/23) 11:31 AM EST (11/23)
Length of Visible Light 11h 00m
Length of Day
10h 05m
Waning Gibbous, 70% of the Moon is Illuminated
Nov 23
Waning Gibbous
Nov 25
Last Quarter
Dec 2
New
Dec 9
First Quarter
Dec 17
Full

Hourly Weather History & Observations

Time (EST) Temp. Windchill Dew Point Humidity Pressure Visibility Wind Dir Wind Speed Gust Speed Precip Events Conditions
12:15 AM 56.5 °F - 56.3 °F 99% 30.13 in 7.0 mi Calm Calm - N/A   Overcast
12:35 AM 56.1 °F - 55.8 °F 99% 30.13 in 5.0 mi Calm Calm - N/A   Overcast
12:55 AM 55.6 °F - 55.4 °F 99% 30.13 in 3.0 mi Calm Calm - N/A   Overcast
1:15 AM 55.8 °F - 55.6 °F 99% 30.13 in 4.0 mi Calm Calm - N/A   Overcast
1:35 AM 55.4 °F - 55.2 °F 99% 30.12 in 4.0 mi Calm Calm - N/A   Overcast
1:55 AM 55.6 °F - 55.4 °F 99% 30.12 in 4.0 mi Calm Calm - N/A   Overcast
2:15 AM 54.9 °F - 54.7 °F 99% 30.13 in 2.5 mi Calm Calm - N/A   Overcast
2:35 AM 55.2 °F - 55.2 °F 100% 30.12 in 4.0 mi South 4.6 mph - N/A   Overcast
2:55 AM 54.7 °F - 54.7 °F 100% 30.13 in 0.8 mi Calm Calm - N/A   Overcast
3:15 AM 55.4 °F - 55.4 °F 100% 30.12 in 0.5 mi Calm Calm - N/A Fog Fog
3:35 AM 53.4 °F - 53.4 °F 100% 30.12 in 0.2 mi Calm Calm - N/A Fog Fog
3:55 AM 52.9 °F - 52.9 °F 100% 30.11 in 0.2 mi NNW 3.5 mph - N/A Fog Fog
4:15 AM 52.7 °F - 52.7 °F 100% 30.11 in 0.2 mi Calm Calm - N/A Fog Fog
4:35 AM 52.2 °F - 52.2 °F 100% 30.11 in 0.5 mi Calm Calm - N/A Fog Fog
4:55 AM 51.1 °F - 51.1 °F 100% 30.10 in 0.2 mi Calm Calm - N/A Fog Fog
5:15 AM 50.9 °F - 50.9 °F 100% 30.10 in 0.2 mi Calm Calm - N/A Fog Fog
5:35 AM 50.0 °F - 50.0 °F 100% 30.11 in 0.2 mi Calm Calm - N/A Fog Fog
5:55 AM 50.7 °F - 50.7 °F 100% 30.11 in 1.0 mi Calm Calm - N/A   Overcast
6:15 AM 50.9 °F - 50.9 °F 100% 30.12 in 1.8 mi North 4.6 mph - N/A   Mostly Cloudy
6:35 AM 51.8 °F - 51.8 °F 100% 30.11 in 10.0 mi North 4.6 mph - N/A   Clear
6:55 AM 51.6 °F - 50.9 °F 97% 30.11 in 10.0 mi North 4.6 mph - N/A   Clear
7:15 AM 51.1 °F - 50.2 °F 97% 30.12 in 10.0 mi Calm Calm - N/A   Clear
7:35 AM 51.4 °F - 50.0 °F 95% 30.13 in 10.0 mi Calm Calm - N/A   Clear
7:55 AM 50.2 °F - 50.0 °F 99% 30.13 in 10.0 mi Calm Calm - N/A   Clear
8:15 AM 52.9 °F - 52.0 °F 97% 30.14 in 10.0 mi South 3.5 mph - N/A   Clear
8:35 AM 52.9 °F - 52.0 °F 97% 30.15 in 10.0 mi South 6.9 mph - N/A   Clear
8:55 AM 54.5 °F - 52.0 °F 91% 30.15 in 10.0 mi Calm Calm - N/A   Clear
9:15 AM 54.1 °F - 51.4 °F 91% 30.16 in 10.0 mi Calm Calm - N/A   Scattered Clouds
9:35 AM 55.4 °F - 50.5 °F 84% 30.16 in 10.0 mi North 5.8 mph - N/A   Mostly Cloudy
9:55 AM 55.9 °F - 46.8 °F 71% 30.17 in 10.0 mi North 4.6 mph - N/A   Overcast
10:15 AM 56.3 °F - 46.6 °F 70% 30.17 in 10.0 mi NNW 5.8 mph - N/A   Overcast
10:35 AM 56.3 °F - 45.7 °F 68% 30.15 in 10.0 mi North 3.5 mph - N/A   Mostly Cloudy
10:55 AM 56.5 °F - 45.5 °F 67% 30.15 in 10.0 mi North 4.6 mph - N/A   Mostly Cloudy
11:15 AM 57.2 °F - 45.7 °F 65% 30.15 in 10.0 mi NNW 4.6 mph - N/A   Overcast
11:35 AM 57.2 °F - 45.0 °F 64% 30.15 in 10.0 mi NNW 3.5 mph - N/A   Overcast
11:55 AM 57.2 °F - 43.7 °F 61% 30.15 in 10.0 mi North 5.8 mph - N/A   Overcast
12:15 PM 57.2 °F - 43.5 °F 60% 30.14 in 10.0 mi NNE 4.6 mph - N/A   Mostly Cloudy
12:35 PM 57.4 °F - 42.6 °F 58% 30.13 in 10.0 mi North 4.6 mph - N/A   Scattered Clouds
12:55 PM 58.1 °F - 43.3 °F 58% 30.12 in 10.0 mi North 3.5 mph - N/A   Mostly Cloudy
1:15 PM 57.2 °F - 42.1 °F 57% 30.11 in 10.0 mi NNE 5.8 mph - N/A   Overcast
1:35 PM 56.3 °F - 41.0 °F 57% 30.11 in 10.0 mi North 5.8 mph - N/A   Overcast
1:55 PM 55.6 °F - 41.0 °F 58% 30.11 in 10.0 mi NNE 6.9 mph - N/A   Overcast
2:15 PM 55.6 °F - 40.8 °F 58% 30.11 in 10.0 mi NNE 6.9 mph - N/A   Scattered Clouds
2:35 PM 57.2 °F - 40.6 °F 54% 30.11 in 10.0 mi North 5.8 mph - N/A   Mostly Cloudy
2:55 PM 56.3 °F - 39.4 °F 53% 30.10 in 10.0 mi NE 6.9 mph - N/A   Scattered Clouds
3:15 PM 56.3 °F - 37.4 °F 49% 30.11 in 10.0 mi North 6.9 mph - N/A   Clear
3:35 PM 55.0 °F - 36.1 °F 49% 30.12 in 10.0 mi North 4.6 mph - N/A   Clear
3:55 PM 54.5 °F - 35.6 °F 49% 30.12 in 10.0 mi Calm Calm - N/A   Clear
4:15 PM 54.0 °F - 35.6 °F 50% 30.12 in 10.0 mi Calm Calm - N/A   Clear
4:35 PM 52.7 °F - 36.1 °F 53% 30.13 in 10.0 mi WNW 4.6 mph - N/A   Clear
4:55 PM 52.2 °F - 35.1 °F 52% 30.14 in 10.0 mi NNW 5.8 mph - N/A   Clear
5:15 PM 51.3 °F - 34.5 °F 53% 30.13 in 10.0 mi NW 4.6 mph - N/A   Clear
5:35 PM 50.5 °F - 34.3 °F 54% 30.14 in 10.0 mi WNW 4.6 mph - N/A   Clear
5:55 PM 50.0 °F - 31.8 °F 50% 30.15 in 10.0 mi NNW 5.8 mph - N/A   Clear
6:15 PM 49.1 °F - 26.6 °F 42% 30.15 in 10.0 mi NNW 4.6 mph - N/A   Clear
6:35 PM 48.4 °F - 25.5 °F 41% 30.16 in 10.0 mi Calm Calm - N/A   Clear
6:55 PM 48.0 °F - 24.3 °F 39% 30.16 in 10.0 mi Calm Calm - N/A   Clear
7:15 PM 46.8 °F - 22.3 °F 38% 30.17 in 10.0 mi North 3.5 mph - N/A   Clear
7:35 PM 45.9 °F 44.6 °F 21.2 °F 38% 30.17 in 10.0 mi NNW 3.5 mph - N/A   Clear
7:55 PM 45.9 °F 42.3 °F 19.4 °F 35% 30.17 in 10.0 mi North 6.9 mph - N/A   Clear
8:15 PM 43.9 °F 42.3 °F 21.2 °F 41% 30.17 in 10.0 mi NNW 3.5 mph - N/A   Clear
8:35 PM 43.9 °F - 21.6 °F 41% 30.17 in 10.0 mi Calm Calm - N/A   Clear
8:55 PM 44.1 °F - 20.7 °F 39% 30.17 in 10.0 mi Calm Calm - N/A   Clear
9:15 PM 43.5 °F - 21.7 °F 42% 30.18 in 10.0 mi Calm Calm - N/A   Clear
9:35 PM 40.1 °F - 23.2 °F 51% 30.18 in 10.0 mi Calm Calm - N/A   Clear
9:55 PM 42.6 °F 39.9 °F 18.0 °F 37% 30.19 in 10.0 mi North 4.6 mph - N/A   Clear
10:15 PM 40.1 °F - 19.4 °F 43% 30.19 in 10.0 mi Calm Calm - N/A   Clear
10:35 PM 41.0 °F 39.0 °F 18.5 °F 40% 30.19 in 10.0 mi North 3.5 mph - N/A   Clear
10:55 PM 39.6 °F 37.4 °F 19.0 °F 44% 30.21 in 10.0 mi North 3.5 mph - N/A   Clear
11:15 PM 39.7 °F 34.9 °F 19.9 °F 45% 30.21 in 10.0 mi North 6.9 mph - N/A   Clear
11:35 PM 39.2 °F 35.9 °F 21.2 °F 49% 30.22 in 10.0 mi North 4.6 mph - N/A   Clear
11:55 PM 38.8 °F 33.8 °F 19.6 °F 46% 30.23 in 10.0 mi North 6.9 mph - N/A   Clear